{"data":{"norad_id":59011,"intl_designator":"2024-036P","name":"STARLINK-31491","alt_names":[],"object_type":"PAYLOAD","status":"ACTIVE","operator":null,"country":"US","launch_date":"2024-02-23","launch_site_code":"AFWTR","launch_vehicle":null,"mission":null,"orbit_class":"UNKNOWN","rcs_meters":null,"size_class":null,"mass_kg":null,"dimensions":null,"purposes":["comms"],"wikipedia_slug":null,"has_3d_model":false,"image_url":null,"decayed_at":null,"tle_current":{"epoch":"2026-09-20T16:03:01.435968Z","epoch_age_seconds":141375,"freshness":"FRESH","line1":"1 59011U 24036P   26263.66876662 -.00000313  00000+0  18823-5 0  9991","line2":"2 59011  53.1581 251.1766 0001720  99.3243 260.7954 15.34389240145191","mean_motion":15.3438924,"eccentricity":0.000172,"inclination_deg":53.1581,"raan_deg":251.1766,"arg_perigee_deg":99.3243,"mean_anomaly_deg":260.7954,"bstar":1.8823e-6,"rev_number":14519,"period_min":93.848416194577,"perigee_km":461.55859135949,"apogee_km":463.91185140364,"semimajor_km":6840.8722213816,"source":"CELESTRAK","updated_at":"2026-09-21T09:00:34.025600Z"}}}